Weather History for Pompano Beach, FL

Change the Weather History Date:

Monday, August 5, 2013

  Actual Average Record
Temperature  
Mean Temperature 85 °F -  
Max Temperature 91 °F 92 °F 96 °F (1970)
Min Temperature 81 °F 75 °F 66 °F (1950)
Cooling Degree Days 20    
Growing Degree Days 35 (Base 50)    
Moisture  
Dew Point 75 °F    
Average Humidity 74    
Maximum Humidity 85    
Minimum Humidity 57    
Precipitation  
Precipitation 0.00 in - - ()
Sea Level Pressure  
Sea Level Pressure 30.02 in    
Wind  
Wind Speed 5 mph (West)    
Max Wind Speed 12 mph    
Max Gust Speed 30 mph    
Visibility 10 miles    
Events Rain    
Averages and records for this station are not official NWS values.
T = Trace of Precipitation, MM = Missing Value Source: NWS Daily Summary

Daily Weather History Graph

Daily Weather History Graph

Search for Another Location

Airport:

Trip Planner

Search our weather history database for the weather conditions in past years. The results will help you decide how hot, cold, wet, or windy it might be!

Date:

Astronomy

Aug. 05, 2013 Rise Set
Actual Time 6:48 AM EDT 8:04 PM EDT
Civil Twilight 6:23 AM EDT 8:28 PM EDT
Nautical Twilight 5:54 AM EDT 8:58 PM EDT
Astronomical Twilight 5:23 AM EDT 9:28 PM EDT
Moon 5:40 AM EDT (8/5) 7:07 PM EDT (8/5)
Length of Visible Light 14h 05m
Length of Day
13h 16m
Waning Crescent, 1% of the Moon is Illuminated
Aug 5
Waning Crescent
Aug 6
New
Aug 14
First Quarter
Aug 20
Full
Aug 28
Last Quarter

Hourly Weather History & Observations

Time (EDT) Temp. Heat Index Dew Point Humidity Pressure Visibility Wind Dir Wind Speed Gust Speed Precip Events Conditions
12:53 AM 82.0 °F 89.4 °F 75.9 °F 82% 30.06 in 10.0 mi SW 3.5 mph - N/A   Unknown
1:53 AM 82.0 °F 86.7 °F 72.0 °F 71% 30.05 in 10.0 mi Calm Calm - N/A   Unknown
2:53 AM 82.0 °F 88.6 °F 75.0 °F 79% 30.02 in 10.0 mi Calm Calm - N/A   Unknown
3:53 AM 82.0 °F 88.6 °F 75.0 °F 79% 30.01 in 10.0 mi SW 3.5 mph - N/A   Clear
4:53 AM 82.0 °F 88.6 °F 75.0 °F 79% 30.00 in 10.0 mi SW 3.5 mph - N/A   Clear
5:53 AM 81.0 °F 86.7 °F 75.0 °F 82% 30.00 in 10.0 mi SW 3.5 mph - N/A   Clear
6:53 AM 81.0 °F 87.3 °F 75.9 °F 85% 30.03 in 10.0 mi SW 3.5 mph - N/A   Clear
7:53 AM 82.9 °F 92.8 °F 78.1 °F 85% 30.04 in 10.0 mi WSW 3.5 mph - N/A   Clear
8:53 AM 86.0 °F 98.3 °F 78.1 °F 77% 30.05 in 10.0 mi West 8.1 mph - N/A   Clear
9:53 AM 89.1 °F 101.4 °F 77.0 °F 67% 30.05 in 10.0 mi WNW 9.2 mph - N/A   Partly Cloudy
10:53 AM 89.1 °F 99.1 °F 75.0 °F 63% 30.04 in 10.0 mi WNW 6.9 mph - N/A   Mostly Cloudy
11:30 AM 84.2 °F 94.1 °F 77.0 °F 79% 30.05 in 0.8 mi West 11.5 mph 29.9 mph N/A Rain Heavy Rain
11:37 AM 82.4 °F 89.5 °F 75.2 °F 79% 30.05 in 10.0 mi WNW 6.9 mph 29.9 mph N/A Rain Rain
11:50 AM 84.2 °F 90.9 °F 73.4 °F 70% 30.05 in 10.0 mi North 3.5 mph - N/A   Scattered Clouds
11:53 AM 84.0 °F 92.6 °F 75.9 °F 76% 30.05 in 10.0 mi NNE 3.5 mph - N/A   Scattered Clouds
12:53 PM 84.9 °F 95.3 °F 77.0 °F 77% 30.04 in 10.0 mi SE 4.6 mph - N/A   Mostly Cloudy
1:53 PM 86.0 °F 96.9 °F 77.0 °F 74% 30.02 in 10.0 mi SE 4.6 mph - N/A   Mostly Cloudy
2:53 PM 88.0 °F 98.5 °F 75.9 °F 67% 30.00 in 10.0 mi ESE 9.2 mph - N/A   Mostly Cloudy
3:53 PM 89.1 °F 96.0 °F 72.0 °F 57% 30.00 in 10.0 mi West 8.1 mph - N/A   Mostly Cloudy
4:53 PM 87.1 °F 96.3 °F 75.0 °F 67% 29.98 in 10.0 mi WSW 10.4 mph - 0.00 in   Mostly Cloudy
5:53 PM 88.0 °F 97.5 °F 75.0 °F 65% 29.96 in 10.0 mi WSW 10.4 mph - N/A   Mostly Cloudy
6:53 PM 87.1 °F 92.0 °F 70.0 °F 57% 29.98 in 10.0 mi West 11.5 mph - N/A   Mostly Cloudy
7:53 PM 82.9 °F 88.0 °F 72.0 °F 69% 30.00 in 10.0 mi WNW 10.4 mph - 0.00 in Rain Light Rain
8:53 PM 82.9 °F 88.8 °F 73.0 °F 72% 30.01 in 10.0 mi NW 4.6 mph - 0.00 in   Clear
9:53 PM 82.0 °F 87.9 °F 73.9 °F 76% 30.00 in 10.0 mi NW 4.6 mph - N/A   Clear
10:53 PM 81.0 °F 86.2 °F 73.9 °F 79% 30.00 in 10.0 mi NW 4.6 mph - N/A   Clear
11:53 PM 81.0 °F 86.7 °F 75.0 °F 82% 30.01 in 10.0 mi West 5.8 mph - N/A   Clear